Year,Month,Day,Hour,Minute,Value (Times are PST for windspeed in km/hr)
2016,03,12,00,00,0.00
2016,03,12,00,01,0.00
2016,03,12,00,02,0.00
2016,03,12,00,03,0.00
2016,03,12,00,04,0.00
2016,03,12,00,05,0.00
2016,03,12,00,06,0.00
2016,03,12,00,07,0.00
2016,03,12,00,08,0.00
2016,03,12,00,09,0.20
2016,03,12,00,10,0.20
2016,03,12,00,11,0.10
2016,03,12,00,12,0.00
2016,03,12,00,13,0.00
2016,03,12,00,14,0.00
2016,03,12,00,15,0.00
2016,03,12,00,16,0.00
2016,03,12,00,17,0.00
2016,03,12,00,18,0.00
2016,03,12,00,19,0.00
2016,03,12,00,20,0.00
2016,03,12,00,21,0.00
2016,03,12,00,22,0.00
2016,03,12,00,23,0.00
2016,03,12,00,24,0.00
2016,03,12,00,25,0.00
2016,03,12,00,26,0.00
2016,03,12,00,27,0.00
2016,03,12,00,28,0.10
2016,03,12,00,29,0.10
2016,03,12,00,30,0.00
2016,03,12,00,31,0.00
2016,03,12,00,32,0.10
2016,03,12,00,33,0.00
2016,03,12,00,34,1.50
2016,03,12,00,35,2.20
2016,03,12,00,36,0.30
2016,03,12,00,37,0.00
2016,03,12,00,38,0.00
2016,03,12,00,39,0.00
2016,03,12,00,40,0.00
2016,03,12,00,41,0.10
2016,03,12,00,42,0.10
2016,03,12,00,43,0.00
2016,03,12,00,44,1.00
2016,03,12,00,45,0.20
2016,03,12,00,46,0.00
2016,03,12,00,47,0.00
2016,03,12,00,48,0.10
2016,03,12,00,49,0.00
2016,03,12,00,50,0.10
2016,03,12,00,51,0.00
2016,03,12,00,52,0.00
2016,03,12,00,53,0.00
2016,03,12,00,54,0.00
2016,03,12,00,55,0.10
2016,03,12,00,56,0.00
2016,03,12,00,57,0.00
2016,03,12,00,58,0.00
2016,03,12,00,59,0.00
2016,03,12,01,00,0.00
2016,03,12,01,01,0.00
2016,03,12,01,02,0.00
2016,03,12,01,03,0.00
2016,03,12,01,04,0.00
2016,03,12,01,05,0.00
2016,03,12,01,06,0.00
2016,03,12,01,07,0.00
2016,03,12,01,08,0.00
2016,03,12,01,09,0.00
2016,03,12,01,10,0.00
2016,03,12,01,11,0.00
2016,03,12,01,12,0.00
2016,03,12,01,13,0.00
2016,03,12,01,14,0.00
2016,03,12,01,15,0.00
2016,03,12,01,16,0.00
2016,03,12,01,17,0.00
2016,03,12,01,18,0.00
2016,03,12,01,19,0.00
2016,03,12,01,20,0.00
2016,03,12,01,21,0.00
2016,03,12,01,22,0.00
2016,03,12,01,23,0.00
2016,03,12,01,24,0.00
2016,03,12,01,25,0.00
2016,03,12,01,26,0.00
2016,03,12,01,27,0.00
2016,03,12,01,28,0.00
2016,03,12,01,29,0.00
2016,03,12,01,30,0.00
2016,03,12,01,31,0.00
2016,03,12,01,32,0.00
2016,03,12,01,33,0.00
2016,03,12,01,34,0.00
2016,03,12,01,35,0.00
2016,03,12,01,36,0.00
2016,03,12,01,37,0.00
2016,03,12,01,38,0.00
2016,03,12,01,39,0.00
2016,03,12,01,40,0.00
2016,03,12,01,41,0.00
2016,03,12,01,42,0.00
2016,03,12,01,43,0.00
2016,03,12,01,44,0.00
2016,03,12,01,45,0.50
2016,03,12,01,46,0.50
2016,03,12,01,47,0.00
2016,03,12,01,48,0.00
2016,03,12,01,49,0.00
2016,03,12,01,50,0.00
2016,03,12,01,51,0.00
2016,03,12,01,52,0.00
2016,03,12,01,53,0.00
2016,03,12,01,54,0.00
2016,03,12,01,55,0.00
2016,03,12,01,56,0.00
2016,03,12,01,57,0.00
2016,03,12,01,58,0.00
2016,03,12,01,59,0.00
2016,03,12,02,00,0.00
2016,03,12,02,01,0.10
2016,03,12,02,02,0.20
2016,03,12,02,03,1.90
2016,03,12,02,04,2.10
2016,03,12,02,05,0.10
2016,03,12,02,06,0.00
2016,03,12,02,07,0.00
2016,03,12,02,08,0.00
2016,03,12,02,09,0.00
2016,03,12,02,10,0.00
2016,03,12,02,11,0.00
2016,03,12,02,12,0.00
2016,03,12,02,13,0.00
2016,03,12,02,14,0.00
2016,03,12,02,15,0.00
2016,03,12,02,16,0.00
2016,03,12,02,17,0.00
2016,03,12,02,18,0.00
2016,03,12,02,19,0.00
2016,03,12,02,20,0.10
2016,03,12,02,21,0.00
2016,03,12,02,22,0.00
2016,03,12,02,23,0.00
2016,03,12,02,24,0.00
2016,03,12,02,25,0.00
2016,03,12,02,26,0.00
2016,03,12,02,27,0.00
2016,03,12,02,28,0.00
2016,03,12,02,29,0.00
2016,03,12,02,30,0.00
2016,03,12,02,31,0.00
2016,03,12,02,32,0.00
2016,03,12,02,33,0.00
2016,03,12,02,34,0.00
2016,03,12,02,35,0.00
2016,03,12,02,36,0.00
2016,03,12,02,37,0.00
2016,03,12,02,38,0.00
2016,03,12,02,39,0.00
2016,03,12,02,40,0.00
2016,03,12,02,41,0.00
2016,03,12,02,42,0.00
2016,03,12,02,43,0.00
2016,03,12,02,44,0.00
2016,03,12,02,45,0.00
2016,03,12,02,46,0.00
2016,03,12,02,47,0.00
2016,03,12,02,48,0.00
2016,03,12,02,49,0.00
2016,03,12,02,50,0.00
2016,03,12,02,51,0.00
2016,03,12,02,52,0.00
2016,03,12,02,53,0.00
2016,03,12,02,54,0.00
2016,03,12,02,55,0.00
2016,03,12,02,56,0.00
2016,03,12,02,57,0.00
2016,03,12,02,58,0.00
2016,03,12,02,59,0.00
2016,03,12,03,00,0.00
2016,03,12,03,01,0.00
2016,03,12,03,02,0.00
2016,03,12,03,03,0.00
2016,03,12,03,04,0.00
2016,03,12,03,05,0.00
2016,03,12,03,06,0.10
2016,03,12,03,07,0.10
2016,03,12,03,08,1.50
2016,03,12,03,09,2.60
2016,03,12,03,10,0.20
2016,03,12,03,11,0.00
2016,03,12,03,12,0.00
2016,03,12,03,13,0.00
2016,03,12,03,14,0.00
2016,03,12,03,15,0.00
2016,03,12,03,16,0.00
2016,03,12,03,17,0.00
2016,03,12,03,18,0.10
2016,03,12,03,19,0.00
2016,03,12,03,20,0.00
2016,03,12,03,21,0.00
2016,03,12,03,22,0.00
2016,03,12,03,23,0.00
2016,03,12,03,24,0.10
2016,03,12,03,25,0.20
2016,03,12,03,26,3.00
2016,03,12,03,27,2.00
2016,03,12,03,28,0.20
2016,03,12,03,29,0.00
2016,03,12,03,30,0.00
2016,03,12,03,31,0.00
2016,03,12,03,32,0.10
2016,03,12,03,33,0.00
2016,03,12,03,34,0.00
2016,03,12,03,35,0.00
2016,03,12,03,36,0.00
2016,03,12,03,37,0.00
2016,03,12,03,38,0.00
2016,03,12,03,39,0.00
2016,03,12,03,40,0.00
2016,03,12,03,41,0.00
2016,03,12,03,42,0.00
2016,03,12,03,43,0.10
2016,03,12,03,44,0.00
2016,03,12,03,45,0.10
2016,03,12,03,46,0.00
2016,03,12,03,47,0.10
2016,03,12,03,48,0.00
2016,03,12,03,49,0.00
2016,03,12,03,50,0.00
2016,03,12,03,51,0.00
2016,03,12,03,52,0.00
2016,03,12,03,53,0.00
2016,03,12,03,54,0.00
2016,03,12,03,55,0.00
2016,03,12,03,56,0.00
2016,03,12,03,57,0.00
2016,03,12,03,58,0.10
2016,03,12,03,59,0.00
2016,03,12,04,00,0.00
2016,03,12,04,01,0.00
2016,03,12,04,02,0.00
2016,03,12,04,03,0.00
2016,03,12,04,04,0.00
2016,03,12,04,05,0.00
2016,03,12,04,06,0.00
2016,03,12,04,07,0.00
2016,03,12,04,08,0.00
2016,03,12,04,09,0.00
2016,03,12,04,10,0.00
2016,03,12,04,11,0.00
2016,03,12,04,12,0.00
2016,03,12,04,13,0.00
2016,03,12,04,14,0.00
2016,03,12,04,15,0.00
2016,03,12,04,16,0.00
2016,03,12,04,17,0.00
2016,03,12,04,18,0.00
2016,03,12,04,19,0.00
2016,03,12,04,20,0.00
2016,03,12,04,21,0.00
2016,03,12,04,22,0.00
2016,03,12,04,23,0.00
2016,03,12,04,24,0.00
2016,03,12,04,25,0.00
2016,03,12,04,26,0.00
2016,03,12,04,27,0.00
2016,03,12,04,28,0.00
2016,03,12,04,29,0.00
2016,03,12,04,30,0.10
2016,03,12,04,31,0.00
2016,03,12,04,32,0.00
2016,03,12,04,33,0.00
2016,03,12,04,34,0.00
2016,03,12,04,35,0.10
2016,03,12,04,36,0.10
2016,03,12,04,37,0.00
2016,03,12,04,38,0.00
2016,03,12,04,39,0.00
2016,03,12,04,40,0.10
2016,03,12,04,41,0.20
2016,03,12,04,42,0.00
2016,03,12,04,43,0.00
2016,03,12,04,44,0.00
2016,03,12,04,45,0.00
2016,03,12,04,46,0.00
2016,03,12,04,47,0.90
2016,03,12,04,48,1.00
2016,03,12,04,49,0.70
2016,03,12,04,50,0.00
2016,03,12,04,51,0.10
2016,03,12,04,52,0.10
2016,03,12,04,53,0.10
2016,03,12,04,54,0.00
2016,03,12,04,55,0.00
2016,03,12,04,56,0.00
2016,03,12,04,57,0.00
2016,03,12,04,58,0.00
2016,03,12,04,59,0.00
2016,03,12,05,00,0.00
2016,03,12,05,01,0.00
2016,03,12,05,02,0.00
2016,03,12,05,03,0.00
2016,03,12,05,04,0.00
2016,03,12,05,05,0.00
2016,03,12,05,06,0.00
2016,03,12,05,07,0.00
2016,03,12,05,08,0.00
2016,03,12,05,09,0.00
2016,03,12,05,10,0.00
2016,03,12,05,11,0.10
2016,03,12,05,12,0.00
2016,03,12,05,13,0.00
2016,03,12,05,14,0.00
2016,03,12,05,15,0.90
2016,03,12,05,16,4.10
2016,03,12,05,17,5.00
2016,03,12,05,18,5.60
2016,03,12,05,19,4.50
2016,03,12,05,20,3.10
2016,03,12,05,21,0.20
2016,03,12,05,22,0.10
2016,03,12,05,23,0.00
2016,03,12,05,24,0.00
2016,03,12,05,25,0.00
2016,03,12,05,26,0.00
2016,03,12,05,27,0.10
2016,03,12,05,28,0.10
2016,03,12,05,29,0.10
2016,03,12,05,30,0.00
2016,03,12,05,31,0.00
2016,03,12,05,32,0.00
2016,03,12,05,33,0.10
2016,03,12,05,34,0.10
2016,03,12,05,35,0.00
2016,03,12,05,36,0.10
2016,03,12,05,37,0.00
2016,03,12,05,38,0.00
2016,03,12,05,39,0.00
2016,03,12,05,40,0.00
2016,03,12,05,41,0.00
2016,03,12,05,42,0.00
2016,03,12,05,43,0.00
2016,03,12,05,44,0.50
2016,03,12,05,45,0.10
2016,03,12,05,46,0.60
2016,03,12,05,47,0.60
2016,03,12,05,48,2.40
2016,03,12,05,49,3.80
2016,03,12,05,50,4.00
2016,03,12,05,51,1.00
2016,03,12,05,52,0.20
2016,03,12,05,53,1.00
2016,03,12,05,54,0.40
2016,03,12,05,55,0.50
2016,03,12,05,56,1.40
2016,03,12,05,57,0.20
2016,03,12,05,58,0.60
2016,03,12,05,59,0.10
2016,03,12,06,00,0.00
2016,03,12,06,01,0.00
2016,03,12,06,02,0.00
2016,03,12,06,03,0.60
2016,03,12,06,04,2.90
2016,03,12,06,05,0.10
2016,03,12,06,06,0.00
2016,03,12,06,07,0.00
2016,03,12,06,08,0.00
2016,03,12,06,09,0.80
2016,03,12,06,10,0.90
2016,03,12,06,11,1.90
2016,03,12,06,12,0.50
2016,03,12,06,13,0.10
2016,03,12,06,14,0.00
2016,03,12,06,15,0.40
2016,03,12,06,16,3.40
2016,03,12,06,17,2.80
2016,03,12,06,18,1.50
2016,03,12,06,19,0.90
2016,03,12,06,20,0.20
2016,03,12,06,21,0.00
2016,03,12,06,22,0.00
2016,03,12,06,23,0.20
2016,03,12,06,24,0.20
2016,03,12,06,25,0.10
2016,03,12,06,26,0.00
2016,03,12,06,27,0.00
2016,03,12,06,28,0.00
2016,03,12,06,29,0.00
2016,03,12,06,30,0.00
2016,03,12,06,31,0.00
2016,03,12,06,32,0.00
2016,03,12,06,33,0.00
2016,03,12,06,34,0.00
2016,03,12,06,35,0.00
2016,03,12,06,36,0.00
2016,03,12,06,37,0.00
2016,03,12,06,38,0.00
2016,03,12,06,39,0.00
2016,03,12,06,40,0.00
2016,03,12,06,41,0.00
2016,03,12,06,42,0.00
2016,03,12,06,43,0.00
2016,03,12,06,44,0.00
2016,03,12,06,45,0.00
2016,03,12,06,46,0.00
2016,03,12,06,47,0.00
2016,03,12,06,48,0.00
2016,03,12,06,49,0.20
2016,03,12,06,50,1.10
2016,03,12,06,51,0.00
2016,03,12,06,52,0.00
2016,03,12,06,53,0.10
2016,03,12,06,54,0.00
2016,03,12,06,55,0.00
2016,03,12,06,56,0.00
2016,03,12,06,57,0.00
2016,03,12,06,58,3.60
2016,03,12,06,59,1.90
2016,03,12,07,00,0.60
2016,03,12,07,01,3.30
2016,03,12,07,02,1.90
2016,03,12,07,03,0.60
2016,03,12,07,04,0.10
2016,03,12,07,05,5.30
2016,03,12,07,06,6.60
2016,03,12,07,07,8.50
2016,03,12,07,08,14.20
2016,03,12,07,09,16.40
2016,03,12,07,10,10.90
2016,03,12,07,11,8.00
2016,03,12,07,12,9.60
2016,03,12,07,13,8.60
2016,03,12,07,14,7.60
2016,03,12,07,15,8.70
2016,03,12,07,16,10.30
2016,03,12,07,17,12.20
2016,03,12,07,18,8.80
2016,03,12,07,19,9.00
2016,03,12,07,20,9.70
2016,03,12,07,21,13.00
2016,03,12,07,22,9.60
2016,03,12,07,23,6.30
2016,03,12,07,24,9.30
2016,03,12,07,25,9.80
2016,03,12,07,26,5.90
2016,03,12,07,27,7.70
2016,03,12,07,28,5.00
2016,03,12,07,29,10.20
2016,03,12,07,30,10.00
2016,03,12,07,31,7.70
2016,03,12,07,32,3.10
2016,03,12,07,33,2.80
2016,03,12,07,34,5.70
2016,03,12,07,35,9.70
2016,03,12,07,36,12.20
2016,03,12,07,37,8.60
2016,03,12,07,38,9.40
2016,03,12,07,39,7.50
2016,03,12,07,40,13.20
2016,03,12,07,41,11.90
2016,03,12,07,42,7.40
2016,03,12,07,43,4.10
2016,03,12,07,44,7.80
2016,03,12,07,45,12.50
2016,03,12,07,46,13.60
2016,03,12,07,47,8.40
2016,03,12,07,48,5.10
2016,03,12,07,49,8.40
2016,03,12,07,50,11.90
2016,03,12,07,51,13.10
2016,03,12,07,52,7.50
2016,03,12,07,53,11.60
2016,03,12,07,54,12.10
2016,03,12,07,55,9.20
2016,03,12,07,56,7.10
2016,03,12,07,57,7.50
2016,03,12,07,58,8.90
2016,03,12,07,59,10.90
2016,03,12,08,00,11.40
2016,03,12,08,01,6.60
2016,03,12,08,02,9.90
2016,03,12,08,03,10.40
2016,03,12,08,04,12.50
2016,03,12,08,05,11.20
2016,03,12,08,06,6.40
2016,03,12,08,07,6.30
2016,03,12,08,08,8.00
2016,03,12,08,09,10.90
2016,03,12,08,10,6.80
2016,03,12,08,11,8.40
2016,03,12,08,12,9.20
2016,03,12,08,13,6.70
2016,03,12,08,14,7.50
2016,03,12,08,15,7.20
2016,03,12,08,16,6.40
2016,03,12,08,17,8.90
2016,03,12,08,18,10.00
2016,03,12,08,19,7.50
2016,03,12,08,20,9.70
2016,03,12,08,21,8.00
2016,03,12,08,22,10.10
2016,03,12,08,23,5.50
2016,03,12,08,24,8.00
2016,03,12,08,25,14.50
2016,03,12,08,26,10.70
2016,03,12,08,27,13.00
2016,03,12,08,28,15.20
2016,03,12,08,29,10.30
2016,03,12,08,30,10.00
2016,03,12,08,31,8.30
2016,03,12,08,32,8.20
2016,03,12,08,33,11.70
2016,03,12,08,34,12.70
2016,03,12,08,35,9.70
2016,03,12,08,36,8.60
2016,03,12,08,37,12.60
2016,03,12,08,38,13.70
2016,03,12,08,39,7.70
2016,03,12,08,40,8.40
2016,03,12,08,41,12.00
2016,03,12,08,42,7.50
2016,03,12,08,43,6.30
2016,03,12,08,44,6.60
2016,03,12,08,45,7.20
2016,03,12,08,46,6.40
2016,03,12,08,47,7.60
2016,03,12,08,48,4.50
2016,03,12,08,49,6.50
2016,03,12,08,50,11.50
2016,03,12,08,51,8.20
2016,03,12,08,52,9.00
2016,03,12,08,53,11.80
2016,03,12,08,54,9.30
2016,03,12,08,55,10.60
2016,03,12,08,56,15.10
2016,03,12,08,57,13.60
2016,03,12,08,58,8.80
2016,03,12,08,59,8.30
2016,03,12,09,00,12.80
2016,03,12,09,01,17.20
2016,03,12,09,02,16.70
2016,03,12,09,03,9.20
2016,03,12,09,04,11.10
2016,03,12,09,05,18.00
2016,03,12,09,06,11.30
2016,03,12,09,07,16.30
2016,03,12,09,08,9.10
2016,03,12,09,09,13.40
2016,03,12,09,10,9.30
2016,03,12,09,11,8.60
2016,03,12,09,12,8.80
2016,03,12,09,13,11.00
2016,03,12,09,14,10.00
2016,03,12,09,15,14.90
2016,03,12,09,16,11.60
2016,03,12,09,17,12.60
2016,03,12,09,18,13.90
2016,03,12,09,19,17.30
2016,03,12,09,20,11.20
2016,03,12,09,21,13.50
2016,03,12,09,22,17.70
2016,03,12,09,23,11.80
2016,03,12,09,24,8.20
2016,03,12,09,25,17.80
2016,03,12,09,26,17.50
2016,03,12,09,27,12.60
2016,03,12,09,28,15.90
2016,03,12,09,29,14.60
2016,03,12,09,30,13.40
2016,03,12,09,31,2.10
2016,03,12,09,32,4.20
2016,03,12,09,33,13.50
2016,03,12,09,34,14.60
2016,03,12,09,35,12.30
2016,03,12,09,36,8.80
2016,03,12,09,37,7.40
2016,03,12,09,38,5.60
2016,03,12,09,39,6.60
2016,03,12,09,40,4.70
2016,03,12,09,41,1.30
2016,03,12,09,42,10.10
2016,03,12,09,43,7.70
2016,03,12,09,44,16.10
2016,03,12,09,45,8.90
2016,03,12,09,46,2.90
2016,03,12,09,47,2.90
2016,03,12,09,48,2.30
2016,03,12,09,49,0.00
2016,03,12,09,50,3.50
2016,03,12,09,51,13.60
2016,03,12,09,52,10.90
2016,03,12,09,53,6.30
2016,03,12,09,54,16.20
2016,03,12,09,55,13.80
2016,03,12,09,56,12.10
2016,03,12,09,57,3.10
2016,03,12,09,58,0.60
2016,03,12,09,59,0.20
2016,03,12,10,00,2.40
2016,03,12,10,01,10.50
2016,03,12,10,02,16.80
2016,03,12,10,03,17.30
2016,03,12,10,04,14.70
2016,03,12,10,05,12.20
2016,03,12,10,06,20.10
2016,03,12,10,07,19.10
2016,03,12,10,08,11.00
2016,03,12,10,09,4.00
2016,03,12,10,10,0.80
2016,03,12,10,11,3.10
2016,03,12,10,12,7.20
2016,03,12,10,13,6.20
2016,03,12,10,14,5.50
2016,03,12,10,15,0.90
2016,03,12,10,16,1.00
2016,03,12,10,17,1.60
2016,03,12,10,18,5.30
2016,03,12,10,19,8.10
2016,03,12,10,20,13.30
2016,03,12,10,21,8.10
2016,03,12,10,22,8.50
2016,03,12,10,23,9.00
2016,03,12,10,24,12.60
2016,03,12,10,25,8.40
2016,03,12,10,26,4.90
2016,03,12,10,27,8.60
2016,03,12,10,28,9.30
2016,03,12,10,29,10.20
2016,03,12,10,30,11.30
2016,03,12,10,31,15.40
2016,03,12,10,32,17.50
2016,03,12,10,33,11.70
2016,03,12,10,34,4.70
2016,03,12,10,35,5.60
2016,03,12,10,36,5.40
2016,03,12,10,37,10.70
2016,03,12,10,38,5.50
2016,03,12,10,39,6.80
2016,03,12,10,40,7.80
2016,03,12,10,41,4.50
2016,03,12,10,42,5.30
2016,03,12,10,43,4.50
2016,03,12,10,44,14.60
2016,03,12,10,45,9.90
2016,03,12,10,46,4.30
2016,03,12,10,47,2.70
2016,03,12,10,48,0.00
2016,03,12,10,49,0.80
2016,03,12,10,50,0.00
2016,03,12,10,51,0.00
2016,03,12,10,52,5.90
2016,03,12,10,53,4.30
2016,03,12,10,54,6.70
2016,03,12,10,55,1.40
2016,03,12,10,56,6.40
2016,03,12,10,57,5.40
2016,03,12,10,58,5.30
2016,03,12,10,59,2.80
2016,03,12,11,00,5.60
2016,03,12,11,01,3.30
2016,03,12,11,02,5.80
2016,03,12,11,03,10.10
2016,03,12,11,04,7.00
2016,03,12,11,05,4.30
2016,03,12,11,06,5.40
2016,03,12,11,07,11.50
2016,03,12,11,08,16.00
2016,03,12,11,09,10.50
2016,03,12,11,10,5.70
2016,03,12,11,11,8.10
2016,03,12,11,12,7.60
2016,03,12,11,13,10.70
2016,03,12,11,14,2.20
2016,03,12,11,15,1.90
2016,03,12,11,16,2.00
2016,03,12,11,17,4.80
2016,03,12,11,18,3.20
2016,03,12,11,19,0.10
2016,03,12,11,20,3.30
2016,03,12,11,21,2.30
2016,03,12,11,22,4.10
2016,03,12,11,23,6.80
2016,03,12,11,24,6.50
2016,03,12,11,25,1.90
2016,03,12,11,26,1.80
2016,03,12,11,27,0.20
2016,03,12,11,28,1.50
2016,03,12,11,29,2.30
2016,03,12,11,30,3.50
2016,03,12,11,31,3.00
2016,03,12,11,32,0.80
2016,03,12,11,33,1.50
2016,03,12,11,34,0.00
2016,03,12,11,35,1.10
2016,03,12,11,36,2.60
2016,03,12,11,37,1.90
2016,03,12,11,38,1.00
2016,03,12,11,39,0.90
2016,03,12,11,40,1.00
2016,03,12,11,41,0.10
2016,03,12,11,42,5.40
2016,03,12,11,43,3.60
2016,03,12,11,44,5.80
2016,03,12,11,45,11.20
2016,03,12,11,46,5.40
2016,03,12,11,47,0.20
2016,03,12,11,48,1.40
2016,03,12,11,49,3.30
2016,03,12,11,50,1.40
2016,03,12,11,51,0.00
2016,03,12,11,52,1.30
2016,03,12,11,53,1.60
2016,03,12,11,54,0.40
2016,03,12,11,55,6.90
2016,03,12,11,56,10.10
2016,03,12,11,57,7.70
2016,03,12,11,58,13.90
2016,03,12,11,59,6.90
2016,03,12,12,00,3.80
2016,03,12,12,01,0.60
2016,03,12,12,02,0.00
2016,03,12,12,03,0.50
2016,03,12,12,04,2.40
2016,03,12,12,05,3.60
2016,03,12,12,06,3.60
2016,03,12,12,07,1.80
2016,03,12,12,08,4.90
2016,03,12,12,09,6.60
2016,03,12,12,10,12.00
2016,03,12,12,11,6.00
2016,03,12,12,12,3.30
2016,03,12,12,13,2.90
2016,03,12,12,14,1.70
2016,03,12,12,15,5.50
2016,03,12,12,16,6.40
2016,03,12,12,17,2.80
2016,03,12,12,18,4.50
2016,03,12,12,19,7.80
2016,03,12,12,20,7.10
2016,03,12,12,21,9.00
2016,03,12,12,22,7.20
2016,03,12,12,23,4.30
2016,03,12,12,24,7.20
2016,03,12,12,25,8.50
2016,03,12,12,26,7.80
2016,03,12,12,27,3.90
2016,03,12,12,28,1.20
2016,03,12,12,29,4.70
2016,03,12,12,30,2.30
2016,03,12,12,31,3.10
2016,03,12,12,32,0.10
2016,03,12,12,33,3.40
2016,03,12,12,34,4.20
2016,03,12,12,35,5.60
2016,03,12,12,36,6.70
2016,03,12,12,37,4.20
2016,03,12,12,38,3.40
2016,03,12,12,39,5.10
2016,03,12,12,40,4.10
2016,03,12,12,41,2.40
2016,03,12,12,42,3.90
2016,03,12,12,43,1.00
2016,03,12,12,44,6.40
2016,03,12,12,45,11.20
2016,03,12,12,46,6.10
2016,03,12,12,47,11.70
2016,03,12,12,48,9.60
2016,03,12,12,49,9.80
2016,03,12,12,50,7.50
2016,03,12,12,51,5.70
2016,03,12,12,52,7.00
2016,03,12,12,53,9.70
2016,03,12,12,54,10.20
2016,03,12,12,55,8.70
2016,03,12,12,56,9.20
2016,03,12,12,57,7.60
2016,03,12,12,58,6.50
2016,03,12,12,59,7.10
2016,03,12,13,00,8.30
2016,03,12,13,01,5.50
2016,03,12,13,02,4.00
2016,03,12,13,03,2.30
2016,03,12,13,04,0.70
2016,03,12,13,05,1.90
2016,03,12,13,06,1.90
2016,03,12,13,07,6.10
2016,03,12,13,08,2.00
2016,03,12,13,09,6.80
2016,03,12,13,10,7.70
2016,03,12,13,11,7.30
2016,03,12,13,12,5.30
2016,03,12,13,13,6.80
2016,03,12,13,14,3.60
2016,03,12,13,15,6.40
2016,03,12,13,16,7.70
2016,03,12,13,17,5.20
2016,03,12,13,18,4.60
2016,03,12,13,19,7.40
2016,03,12,13,20,6.00
2016,03,12,13,21,4.00
2016,03,12,13,22,1.00
2016,03,12,13,23,8.10
2016,03,12,13,24,3.50
2016,03,12,13,25,8.50
2016,03,12,13,26,5.90
2016,03,12,13,27,3.10
2016,03,12,13,28,6.80
2016,03,12,13,29,7.70
2016,03,12,13,30,9.50
2016,03,12,13,31,10.20
2016,03,12,13,32,6.40
2016,03,12,13,33,4.60
2016,03,12,13,34,3.60
2016,03,12,13,35,6.90
2016,03,12,13,36,5.10
2016,03,12,13,37,5.60
2016,03,12,13,38,1.00
2016,03,12,13,39,7.30
2016,03,12,13,40,8.10
2016,03,12,13,41,5.80
2016,03,12,13,42,3.10
2016,03,12,13,43,3.00
2016,03,12,13,44,0.90
2016,03,12,13,45,2.70
2016,03,12,13,46,0.00
2016,03,12,13,47,1.90
2016,03,12,13,48,1.70
2016,03,12,13,49,1.70
2016,03,12,13,50,4.50
2016,03,12,13,51,8.70
2016,03,12,13,52,6.40
2016,03,12,13,53,9.80
2016,03,12,13,54,8.50
2016,03,12,13,55,7.30
2016,03,12,13,56,7.20
2016,03,12,13,57,7.80
2016,03,12,13,58,7.40
2016,03,12,13,59,7.20
2016,03,12,14,00,2.70
2016,03,12,14,01,2.50
2016,03,12,14,02,4.80
2016,03,12,14,03,5.30
2016,03,12,14,04,7.70
2016,03,12,14,05,6.40
2016,03,12,14,06,6.00
2016,03,12,14,07,5.30
2016,03,12,14,08,4.20
2016,03,12,14,09,4.10
2016,03,12,14,10,7.00
2016,03,12,14,11,6.40
2016,03,12,14,12,9.10
2016,03,12,14,13,6.40
2016,03,12,14,14,5.60
2016,03,12,14,15,4.70
2016,03,12,14,16,2.50
2016,03,12,14,17,8.30
2016,03,12,14,18,7.80
2016,03,12,14,19,8.10
2016,03,12,14,20,8.00
2016,03,12,14,21,10.10
2016,03,12,14,22,8.10
2016,03,12,14,23,9.00
2016,03,12,14,24,7.20
2016,03,12,14,25,7.40
2016,03,12,14,26,4.20
2016,03,12,14,27,6.40
2016,03,12,14,28,9.10
2016,03,12,14,29,9.90
2016,03,12,14,30,8.90
2016,03,12,14,31,7.20
2016,03,12,14,32,6.30
2016,03,12,14,33,6.30
2016,03,12,14,34,7.30
2016,03,12,14,35,4.80
2016,03,12,14,36,4.20
2016,03,12,14,37,1.30
2016,03,12,14,38,0.00
2016,03,12,14,39,6.10
2016,03,12,14,40,8.60
2016,03,12,14,41,6.00
2016,03,12,14,42,0.10
2016,03,12,14,43,2.60
2016,03,12,14,44,1.80
2016,03,12,14,45,0.00
2016,03,12,14,46,0.00
2016,03,12,14,47,0.60
2016,03,12,14,48,2.20
2016,03,12,14,49,1.40
2016,03,12,14,50,2.60
2016,03,12,14,51,4.40
2016,03,12,14,52,5.40
2016,03,12,14,53,4.50
2016,03,12,14,54,4.00
2016,03,12,14,55,6.40
2016,03,12,14,56,3.10
2016,03,12,14,57,0.40
2016,03,12,14,58,0.30
2016,03,12,14,59,7.30
2016,03,12,15,00,8.20
2016,03,12,15,01,3.80
2016,03,12,15,02,2.90
2016,03,12,15,03,6.40
2016,03,12,15,04,7.30
2016,03,12,15,05,2.10
2016,03,12,15,06,7.60
2016,03,12,15,07,7.90
2016,03,12,15,08,5.60
2016,03,12,15,09,6.10
2016,03,12,15,10,8.90
2016,03,12,15,11,10.90
2016,03,12,15,12,10.50
2016,03,12,15,13,9.90
2016,03,12,15,14,7.30
2016,03,12,15,15,7.20
2016,03,12,15,16,8.30
2016,03,12,15,17,6.40
2016,03,12,15,18,8.90
2016,03,12,15,19,7.70
2016,03,12,15,20,3.40
2016,03,12,15,21,9.30
2016,03,12,15,22,1.20
2016,03,12,15,23,1.70
2016,03,12,15,24,3.50
2016,03,12,15,25,8.60
2016,03,12,15,26,7.00
2016,03,12,15,27,6.40
2016,03,12,15,28,8.50
2016,03,12,15,29,11.40
2016,03,12,15,30,9.30
2016,03,12,15,31,11.40
2016,03,12,15,32,8.90
2016,03,12,15,33,7.70
2016,03,12,15,34,7.80
2016,03,12,15,35,9.70
2016,03,12,15,36,8.30
2016,03,12,15,37,7.50
2016,03,12,15,38,7.40
2016,03,12,15,39,7.00
2016,03,12,15,40,9.70
2016,03,12,15,41,10.50
2016,03,12,15,42,17.50
2016,03,12,15,43,12.20
2016,03,12,15,44,13.80
2016,03,12,15,45,12.40
2016,03,12,15,46,12.60
2016,03,12,15,47,12.00
2016,03,12,15,48,12.40
2016,03,12,15,49,13.00
2016,03,12,15,50,15.00
2016,03,12,15,51,9.40
2016,03,12,15,52,9.10
2016,03,12,15,53,10.00
2016,03,12,15,54,14.30
2016,03,12,15,55,9.60
2016,03,12,15,56,5.30
2016,03,12,15,57,7.90
2016,03,12,15,58,10.30
2016,03,12,15,59,10.90
2016,03,12,16,00,5.40
2016,03,12,16,01,0.20
2016,03,12,16,02,8.10
2016,03,12,16,03,7.70
2016,03,12,16,04,3.70
2016,03,12,16,05,4.60
2016,03,12,16,06,4.30
2016,03,12,16,07,5.80
2016,03,12,16,08,9.90
2016,03,12,16,09,6.40
2016,03,12,16,10,6.40
2016,03,12,16,11,4.80
2016,03,12,16,12,6.30
2016,03,12,16,13,8.90
2016,03,12,16,14,15.90
2016,03,12,16,15,8.90
2016,03,12,16,16,7.70
2016,03,12,16,17,7.40
2016,03,12,16,18,8.60
2016,03,12,16,19,8.10
2016,03,12,16,20,6.10
2016,03,12,16,21,11.00
2016,03,12,16,22,5.20
2016,03,12,16,23,4.10
2016,03,12,16,24,5.80
2016,03,12,16,25,7.80
2016,03,12,16,26,2.40
2016,03,12,16,27,3.20
2016,03,12,16,28,6.80
2016,03,12,16,29,4.20
2016,03,12,16,30,7.10
2016,03,12,16,31,0.10
2016,03,12,16,32,3.00
2016,03,12,16,33,5.30
2016,03,12,16,34,6.50
2016,03,12,16,35,3.30
2016,03,12,16,36,4.90
2016,03,12,16,37,2.80
2016,03,12,16,38,0.30
2016,03,12,16,39,6.50
2016,03,12,16,40,3.50
2016,03,12,16,41,3.40
2016,03,12,16,42,5.10
2016,03,12,16,43,1.20
2016,03,12,16,44,5.90
2016,03,12,16,45,6.70
2016,03,12,16,46,3.10
2016,03,12,16,47,0.20
2016,03,12,16,48,1.90
2016,03,12,16,49,5.60
2016,03,12,16,50,0.90
2016,03,12,16,51,3.80
2016,03,12,16,52,3.70
2016,03,12,16,53,3.10
2016,03,12,16,54,4.40
2016,03,12,16,55,4.70
2016,03,12,16,56,7.00
2016,03,12,16,57,2.40
2016,03,12,16,58,0.20
2016,03,12,16,59,2.70
2016,03,12,17,00,2.70
2016,03,12,17,01,3.30
2016,03,12,17,02,0.00
2016,03,12,17,03,4.00
2016,03,12,17,04,5.50
2016,03,12,17,05,0.10
2016,03,12,17,06,0.10
2016,03,12,17,07,0.00
2016,03,12,17,08,0.00
2016,03,12,17,09,5.00
2016,03,12,17,10,3.10
2016,03,12,17,11,0.60
2016,03,12,17,12,0.10
2016,03,12,17,13,0.00
2016,03,12,17,14,1.10
2016,03,12,17,15,0.50
2016,03,12,17,16,1.40
2016,03,12,17,17,0.00
2016,03,12,17,18,0.70
2016,03,12,17,19,3.40
2016,03,12,17,20,0.20
2016,03,12,17,21,4.60
2016,03,12,17,22,7.20
2016,03,12,17,23,7.30
2016,03,12,17,24,2.10
2016,03,12,17,25,0.50
2016,03,12,17,26,6.10
2016,03,12,17,27,5.80
2016,03,12,17,28,1.00
2016,03,12,17,29,0.00
2016,03,12,17,30,6.40
2016,03,12,17,31,4.70
2016,03,12,17,32,6.30
2016,03,12,17,33,4.80
2016,03,12,17,34,0.70
2016,03,12,17,35,2.20
2016,03,12,17,36,0.10
2016,03,12,17,37,0.20
2016,03,12,17,38,4.30
2016,03,12,17,39,3.20
2016,03,12,17,40,0.00
2016,03,12,17,41,0.20
2016,03,12,17,42,0.30
2016,03,12,17,43,0.00
2016,03,12,17,44,0.00
2016,03,12,17,45,0.00
2016,03,12,17,46,0.00
2016,03,12,17,47,0.00
2016,03,12,17,48,0.00
2016,03,12,17,49,0.00
2016,03,12,17,50,0.10
2016,03,12,17,51,2.00
2016,03,12,17,52,0.70
2016,03,12,17,53,2.80
2016,03,12,17,54,3.40
2016,03,12,17,55,0.00
2016,03,12,17,56,0.00
2016,03,12,17,57,0.00
2016,03,12,17,58,0.00
2016,03,12,17,59,0.00
2016,03,12,18,00,0.00